Year,Month,Day,Hour,Minute,Value (Times are PST for temperature in C)
2018,07,08,00,00,13.90
2018,07,08,00,01,13.90
2018,07,08,00,02,13.90
2018,07,08,00,03,13.90
2018,07,08,00,04,13.80
2018,07,08,00,05,13.80
2018,07,08,00,06,13.80
2018,07,08,00,07,13.80
2018,07,08,00,08,13.80
2018,07,08,00,09,13.80
2018,07,08,00,10,13.80
2018,07,08,00,11,13.80
2018,07,08,00,12,13.80
2018,07,08,00,13,13.80
2018,07,08,00,14,13.80
2018,07,08,00,15,13.70
2018,07,08,00,16,13.70
2018,07,08,00,17,13.70
2018,07,08,00,18,13.70
2018,07,08,00,19,13.70
2018,07,08,00,20,13.70
2018,07,08,00,21,13.70
2018,07,08,00,22,13.70
2018,07,08,00,23,13.70
2018,07,08,00,24,13.70
2018,07,08,00,25,13.70
2018,07,08,00,26,13.70
2018,07,08,00,27,13.70
2018,07,08,00,28,13.70
2018,07,08,00,29,13.70
2018,07,08,00,30,13.70
2018,07,08,00,31,13.70
2018,07,08,00,32,13.70
2018,07,08,00,33,13.70
2018,07,08,00,34,13.70
2018,07,08,00,35,13.70
2018,07,08,00,36,13.70
2018,07,08,00,37,13.70
2018,07,08,00,38,13.70
2018,07,08,00,39,13.70
2018,07,08,00,40,13.60
2018,07,08,00,41,13.60
2018,07,08,00,42,13.60
2018,07,08,00,43,13.60
2018,07,08,00,44,13.60
2018,07,08,00,45,13.60
2018,07,08,00,46,13.60
2018,07,08,00,47,13.60
2018,07,08,00,48,13.60
2018,07,08,00,49,13.60
2018,07,08,00,50,13.60
2018,07,08,00,51,13.60
2018,07,08,00,52,13.60
2018,07,08,00,53,13.60
2018,07,08,00,54,13.60
2018,07,08,00,55,13.60
2018,07,08,00,56,13.60
2018,07,08,00,57,13.60
2018,07,08,00,58,13.60
2018,07,08,00,59,13.60
2018,07,08,01,00,13.60
2018,07,08,01,01,13.60
2018,07,08,01,02,13.60
2018,07,08,01,03,13.60
2018,07,08,01,04,13.60
2018,07,08,01,05,13.60
2018,07,08,01,06,13.60
2018,07,08,01,07,13.60
2018,07,08,01,08,13.60
2018,07,08,01,09,13.60
2018,07,08,01,10,13.70
2018,07,08,01,11,13.60
2018,07,08,01,12,13.70
2018,07,08,01,13,13.70
2018,07,08,01,14,13.70
2018,07,08,01,15,13.70
2018,07,08,01,16,13.70
2018,07,08,01,17,13.70
2018,07,08,01,18,13.70
2018,07,08,01,19,13.70
2018,07,08,01,20,13.70
2018,07,08,01,21,13.70
2018,07,08,01,22,13.70
2018,07,08,01,23,13.70
2018,07,08,01,24,13.70
2018,07,08,01,25,13.70
2018,07,08,01,26,13.70
2018,07,08,01,27,13.70
2018,07,08,01,28,13.70
2018,07,08,01,29,13.70
2018,07,08,01,30,13.70
2018,07,08,01,31,13.70
2018,07,08,01,32,13.70
2018,07,08,01,33,13.70
2018,07,08,01,34,13.70
2018,07,08,01,35,13.70
2018,07,08,01,36,13.70
2018,07,08,01,37,13.70
2018,07,08,01,38,13.70
2018,07,08,01,39,13.70
2018,07,08,01,40,13.70
2018,07,08,01,41,13.70
2018,07,08,01,42,13.70
2018,07,08,01,43,13.70
2018,07,08,01,44,13.70
2018,07,08,01,45,13.70
2018,07,08,01,46,13.60
2018,07,08,01,47,13.60
2018,07,08,01,48,13.50
2018,07,08,01,49,13.50
2018,07,08,01,50,13.40
2018,07,08,01,51,13.40
2018,07,08,01,52,13.40
2018,07,08,01,53,13.40
2018,07,08,01,54,13.30
2018,07,08,01,55,13.30
2018,07,08,01,56,13.30
2018,07,08,01,57,13.30
2018,07,08,01,58,13.30
2018,07,08,01,59,13.30
2018,07,08,02,00,13.30
2018,07,08,02,01,13.30
2018,07,08,02,02,13.30
2018,07,08,02,03,13.30
2018,07,08,02,04,13.30
2018,07,08,02,05,13.30
2018,07,08,02,06,13.30
2018,07,08,02,07,13.30
2018,07,08,02,08,13.30
2018,07,08,02,09,13.30
2018,07,08,02,10,13.30
2018,07,08,02,11,13.30
2018,07,08,02,12,13.30
2018,07,08,02,13,13.30
2018,07,08,02,14,13.20
2018,07,08,02,15,13.20
2018,07,08,02,16,13.20
2018,07,08,02,17,13.20
2018,07,08,02,18,13.20
2018,07,08,02,19,13.20
2018,07,08,02,20,13.20
2018,07,08,02,21,13.20
2018,07,08,02,22,13.20
2018,07,08,02,23,13.20
2018,07,08,02,24,13.20
2018,07,08,02,25,13.20
2018,07,08,02,26,13.10
2018,07,08,02,27,13.10
2018,07,08,02,28,13.10
2018,07,08,02,29,13.10
2018,07,08,02,30,13.10
2018,07,08,02,31,13.10
2018,07,08,02,32,13.10
2018,07,08,02,33,13.10
2018,07,08,02,34,13.10
2018,07,08,02,35,13.10
2018,07,08,02,36,13.00
2018,07,08,02,37,13.00
2018,07,08,02,38,13.00
2018,07,08,02,39,12.90
2018,07,08,02,40,12.90
2018,07,08,02,41,12.90
2018,07,08,02,42,12.90
2018,07,08,02,43,12.90
2018,07,08,02,44,12.90
2018,07,08,02,45,12.90
2018,07,08,02,46,12.90
2018,07,08,02,47,12.90
2018,07,08,02,48,12.90
2018,07,08,02,49,12.80
2018,07,08,02,50,12.80
2018,07,08,02,51,12.80
2018,07,08,02,52,12.80
2018,07,08,02,53,12.80
2018,07,08,02,54,12.80
2018,07,08,02,55,12.80
2018,07,08,02,56,12.70
2018,07,08,02,57,12.70
2018,07,08,02,58,12.70
2018,07,08,02,59,12.80
2018,07,08,03,00,12.80
2018,07,08,03,01,12.80
2018,07,08,03,02,12.80
2018,07,08,03,03,12.80
2018,07,08,03,04,12.80
2018,07,08,03,05,12.80
2018,07,08,03,06,12.80
2018,07,08,03,07,12.80
2018,07,08,03,08,12.70
2018,07,08,03,09,12.70
2018,07,08,03,10,12.70
2018,07,08,03,11,12.70
2018,07,08,03,12,12.70
2018,07,08,03,13,12.70
2018,07,08,03,14,12.70
2018,07,08,03,15,12.70
2018,07,08,03,16,12.70
2018,07,08,03,17,12.70
2018,07,08,03,18,12.70
2018,07,08,03,19,12.70
2018,07,08,03,20,12.70
2018,07,08,03,21,12.70
2018,07,08,03,22,12.70
2018,07,08,03,23,12.70
2018,07,08,03,24,12.70
2018,07,08,03,25,12.80
2018,07,08,03,26,12.70
2018,07,08,03,27,12.70
2018,07,08,03,28,12.70
2018,07,08,03,29,12.70
2018,07,08,03,30,12.70
2018,07,08,03,31,12.70
2018,07,08,03,32,12.70
2018,07,08,03,33,12.80
2018,07,08,03,34,12.80
2018,07,08,03,35,12.80
2018,07,08,03,36,12.80
2018,07,08,03,37,12.80
2018,07,08,03,38,12.80
2018,07,08,03,39,12.80
2018,07,08,03,40,12.80
2018,07,08,03,41,12.80
2018,07,08,03,42,12.80
2018,07,08,03,43,12.80
2018,07,08,03,44,12.80
2018,07,08,03,45,12.90
2018,07,08,03,46,12.90
2018,07,08,03,47,12.90
2018,07,08,03,48,12.90
2018,07,08,03,49,12.90
2018,07,08,03,50,12.90
2018,07,08,03,51,13.00
2018,07,08,03,52,13.00
2018,07,08,03,53,13.00
2018,07,08,03,54,13.00
2018,07,08,03,55,13.00
2018,07,08,03,56,13.00
2018,07,08,03,57,13.00
2018,07,08,03,58,13.00
2018,07,08,03,59,13.00
2018,07,08,04,00,13.00
2018,07,08,04,01,13.00
2018,07,08,04,02,13.00
2018,07,08,04,03,13.00
2018,07,08,04,04,12.90
2018,07,08,04,05,12.90
2018,07,08,04,06,12.90
2018,07,08,04,07,12.90
2018,07,08,04,08,12.90
2018,07,08,04,09,12.90
2018,07,08,04,10,12.90
2018,07,08,04,11,12.90
2018,07,08,04,12,12.90
2018,07,08,04,13,12.90
2018,07,08,04,14,12.90
2018,07,08,04,15,12.90
2018,07,08,04,16,12.90
2018,07,08,04,17,12.90
2018,07,08,04,18,12.90
2018,07,08,04,19,12.90
2018,07,08,04,20,12.90
2018,07,08,04,21,12.90
2018,07,08,04,22,12.90
2018,07,08,04,23,12.80
2018,07,08,04,24,12.80
2018,07,08,04,25,12.80
2018,07,08,04,26,12.80
2018,07,08,04,27,12.80
2018,07,08,04,28,12.80
2018,07,08,04,29,12.80
2018,07,08,04,30,12.80
2018,07,08,04,31,12.80
2018,07,08,04,32,12.80
2018,07,08,04,33,12.80
2018,07,08,04,34,12.80
2018,07,08,04,35,12.80
2018,07,08,04,36,12.80
2018,07,08,04,37,12.80
2018,07,08,04,38,12.80
2018,07,08,04,39,12.80
2018,07,08,04,40,12.80
2018,07,08,04,41,12.80
2018,07,08,04,42,12.80
2018,07,08,04,43,12.80
2018,07,08,04,44,12.80
2018,07,08,04,45,12.80
2018,07,08,04,46,12.80
2018,07,08,04,47,12.80
2018,07,08,04,48,12.80
2018,07,08,04,49,12.80
2018,07,08,04,50,12.80
2018,07,08,04,51,12.80
2018,07,08,04,52,12.80
2018,07,08,04,53,12.80
2018,07,08,04,54,12.80
2018,07,08,04,55,12.80
2018,07,08,04,56,12.80
2018,07,08,04,57,12.80
2018,07,08,04,58,12.80
2018,07,08,04,59,12.90
2018,07,08,05,00,12.90
2018,07,08,05,01,12.90
2018,07,08,05,02,12.90
2018,07,08,05,03,12.90
2018,07,08,05,04,12.90
2018,07,08,05,05,13.00
2018,07,08,05,06,13.00
2018,07,08,05,07,13.00
2018,07,08,05,08,13.00
2018,07,08,05,09,13.00
2018,07,08,05,10,13.00
2018,07,08,05,11,13.00
2018,07,08,05,12,13.10
2018,07,08,05,13,13.10
2018,07,08,05,14,13.10
2018,07,08,05,15,13.10
2018,07,08,05,16,13.10
2018,07,08,05,17,13.10
2018,07,08,05,18,13.10
2018,07,08,05,19,13.20
2018,07,08,05,20,13.20
2018,07,08,05,21,13.20
2018,07,08,05,22,13.20
2018,07,08,05,23,13.20
2018,07,08,05,24,13.20
2018,07,08,05,25,13.20
2018,07,08,05,26,13.20
2018,07,08,05,27,13.20
2018,07,08,05,28,13.20
2018,07,08,05,29,13.20
2018,07,08,05,30,13.20
2018,07,08,05,31,13.20
2018,07,08,05,32,13.20
2018,07,08,05,33,13.20
2018,07,08,05,34,13.30
2018,07,08,05,35,13.30
2018,07,08,05,36,13.30
2018,07,08,05,37,13.30
2018,07,08,05,38,13.30
2018,07,08,05,39,13.30
2018,07,08,05,40,13.30
2018,07,08,05,41,13.20
2018,07,08,05,42,13.20
2018,07,08,05,43,13.30
2018,07,08,05,44,13.30
2018,07,08,05,45,13.30
2018,07,08,05,46,13.30
2018,07,08,05,47,13.30
2018,07,08,05,48,13.30
2018,07,08,05,49,13.30
2018,07,08,05,50,13.30
2018,07,08,05,51,13.30
2018,07,08,05,52,13.30
2018,07,08,05,53,13.30
2018,07,08,05,54,13.30
2018,07,08,05,55,13.40
2018,07,08,05,56,13.40
2018,07,08,05,57,13.40
2018,07,08,05,58,13.40
2018,07,08,05,59,13.50
2018,07,08,06,00,13.50
2018,07,08,06,01,13.60
2018,07,08,06,02,13.60
2018,07,08,06,03,13.70
2018,07,08,06,04,13.70
2018,07,08,06,05,13.70
2018,07,08,06,06,13.80
2018,07,08,06,07,13.80
2018,07,08,06,08,13.80
2018,07,08,06,09,13.90
2018,07,08,06,10,13.90
2018,07,08,06,11,13.90
2018,07,08,06,12,13.90
2018,07,08,06,13,14.00
2018,07,08,06,14,14.00
2018,07,08,06,15,14.00
2018,07,08,06,16,14.00
2018,07,08,06,17,14.10
2018,07,08,06,18,14.10
2018,07,08,06,19,14.10
2018,07,08,06,20,14.10
2018,07,08,06,21,14.10
2018,07,08,06,22,14.10
2018,07,08,06,23,14.20
2018,07,08,06,24,14.20
2018,07,08,06,25,14.20
2018,07,08,06,26,14.20
2018,07,08,06,27,14.20
2018,07,08,06,28,14.20
2018,07,08,06,29,14.20
2018,07,08,06,30,14.20
2018,07,08,06,31,14.20
2018,07,08,06,32,14.20
2018,07,08,06,33,14.20
2018,07,08,06,34,14.20
2018,07,08,06,35,14.20
2018,07,08,06,36,14.20
2018,07,08,06,37,14.20
2018,07,08,06,38,14.20
2018,07,08,06,39,14.20
2018,07,08,06,40,14.30
2018,07,08,06,41,14.30
2018,07,08,06,42,14.30
2018,07,08,06,43,14.30
2018,07,08,06,44,14.30
2018,07,08,06,45,14.30
2018,07,08,06,46,14.30
2018,07,08,06,47,14.30
2018,07,08,06,48,14.40
2018,07,08,06,49,14.40
2018,07,08,06,50,14.40
2018,07,08,06,51,14.40
2018,07,08,06,52,14.40
2018,07,08,06,53,14.40
2018,07,08,06,54,14.40
2018,07,08,06,55,14.40
2018,07,08,06,56,14.40
2018,07,08,06,57,14.50
2018,07,08,06,58,14.50
2018,07,08,06,59,14.50
2018,07,08,07,00,14.50
2018,07,08,07,01,14.60
2018,07,08,07,02,14.60
2018,07,08,07,03,14.60
2018,07,08,07,04,14.60
2018,07,08,07,05,14.60
2018,07,08,07,06,14.60
2018,07,08,07,07,14.60
2018,07,08,07,08,14.60
2018,07,08,07,09,14.60
2018,07,08,07,10,14.60
2018,07,08,07,11,14.70
2018,07,08,07,12,14.60
2018,07,08,07,13,14.70
2018,07,08,07,14,14.70
2018,07,08,07,15,14.70
2018,07,08,07,16,14.70
2018,07,08,07,17,14.70
2018,07,08,07,18,14.70
2018,07,08,07,19,14.70
2018,07,08,07,20,14.70
2018,07,08,07,21,14.70
2018,07,08,07,22,14.80
2018,07,08,07,23,14.80
2018,07,08,07,24,14.80
2018,07,08,07,25,14.80
2018,07,08,07,26,14.90
2018,07,08,07,27,14.90
2018,07,08,07,28,14.90
2018,07,08,07,29,15.00
2018,07,08,07,30,15.00
2018,07,08,07,31,15.10
2018,07,08,07,32,15.10
2018,07,08,07,33,15.10
2018,07,08,07,34,15.10
2018,07,08,07,35,15.20
2018,07,08,07,36,15.20
2018,07,08,07,37,15.20
2018,07,08,07,38,15.30
2018,07,08,07,39,15.30
2018,07,08,07,40,15.30
2018,07,08,07,41,15.30
2018,07,08,07,42,15.30
2018,07,08,07,43,15.30
2018,07,08,07,44,15.40
2018,07,08,07,45,15.40
2018,07,08,07,46,15.50
2018,07,08,07,47,15.50
2018,07,08,07,48,15.60
2018,07,08,07,49,15.60
2018,07,08,07,50,15.70
2018,07,08,07,51,15.70
2018,07,08,07,52,15.80
2018,07,08,07,53,15.80
2018,07,08,07,54,15.80
2018,07,08,07,55,15.90
2018,07,08,07,56,15.90
2018,07,08,07,57,16.00
2018,07,08,07,58,16.00
2018,07,08,07,59,16.10
2018,07,08,08,00,16.10
2018,07,08,08,01,16.20
2018,07,08,08,02,16.20
2018,07,08,08,03,16.20
2018,07,08,08,04,16.30
2018,07,08,08,05,16.30
2018,07,08,08,06,16.30
2018,07,08,08,07,16.40
2018,07,08,08,08,16.40
2018,07,08,08,09,16.50
2018,07,08,08,10,16.60
2018,07,08,08,11,16.60
2018,07,08,08,12,16.70
2018,07,08,08,13,16.70
2018,07,08,08,14,16.80
2018,07,08,08,15,16.90
2018,07,08,08,16,16.90
2018,07,08,08,17,17.00
2018,07,08,08,18,17.00
2018,07,08,08,19,17.10
2018,07,08,08,20,17.10
2018,07,08,08,21,17.10
2018,07,08,08,22,17.10
2018,07,08,08,23,17.20
2018,07,08,08,24,17.30
2018,07,08,08,25,17.30
2018,07,08,08,26,17.30
2018,07,08,08,27,17.30
2018,07,08,08,28,17.30
2018,07,08,08,29,17.40
2018,07,08,08,30,17.50
2018,07,08,08,31,17.50
2018,07,08,08,32,17.60
2018,07,08,08,33,17.60
2018,07,08,08,34,17.60
2018,07,08,08,35,17.70
2018,07,08,08,36,17.70
2018,07,08,08,37,17.70
2018,07,08,08,38,17.70
2018,07,08,08,39,17.80
2018,07,08,08,40,17.80
2018,07,08,08,41,17.80
2018,07,08,08,42,17.80
2018,07,08,08,43,17.90
2018,07,08,08,44,17.90
2018,07,08,08,45,17.90
2018,07,08,08,46,17.90
2018,07,08,08,47,17.90
2018,07,08,08,48,17.90
2018,07,08,08,49,17.90
2018,07,08,08,50,17.90
2018,07,08,08,51,17.90
2018,07,08,08,52,17.90
2018,07,08,08,53,18.00
2018,07,08,08,54,18.00
2018,07,08,08,55,18.00
2018,07,08,08,56,18.00
2018,07,08,08,57,18.00
2018,07,08,08,58,18.00
2018,07,08,08,59,17.90
2018,07,08,09,00,17.90
2018,07,08,09,01,17.90
2018,07,08,09,02,17.90
2018,07,08,09,03,17.90
2018,07,08,09,04,17.90
2018,07,08,09,05,17.90
2018,07,08,09,06,17.90
2018,07,08,09,07,17.90
2018,07,08,09,08,17.90
2018,07,08,09,09,17.90
2018,07,08,09,10,17.90
2018,07,08,09,11,18.00
2018,07,08,09,12,18.00
2018,07,08,09,13,18.00
2018,07,08,09,14,18.00
2018,07,08,09,15,18.00
2018,07,08,09,16,18.10
2018,07,08,09,17,18.10
2018,07,08,09,18,18.10
2018,07,08,09,19,18.10
2018,07,08,09,20,18.10
2018,07,08,09,21,18.10
2018,07,08,09,22,18.10
2018,07,08,09,23,18.10
2018,07,08,09,24,18.10
2018,07,08,09,25,18.10
2018,07,08,09,26,18.10
2018,07,08,09,27,18.10
2018,07,08,09,28,18.20
2018,07,08,09,29,18.20
2018,07,08,09,30,18.20
2018,07,08,09,31,18.20
2018,07,08,09,32,18.20
2018,07,08,09,33,18.20
2018,07,08,09,34,18.20
2018,07,08,09,35,18.20
2018,07,08,09,36,18.20
2018,07,08,09,37,18.20
2018,07,08,09,38,18.20
2018,07,08,09,39,18.20
2018,07,08,09,40,18.20
2018,07,08,09,41,18.20
2018,07,08,09,42,18.20
2018,07,08,09,43,18.20
2018,07,08,09,44,18.20
2018,07,08,09,45,18.30
2018,07,08,09,46,18.30
2018,07,08,09,47,18.30
2018,07,08,09,48,18.30
2018,07,08,09,49,18.30
2018,07,08,09,50,18.30
2018,07,08,09,51,18.30
2018,07,08,09,52,18.30
2018,07,08,09,53,18.40
2018,07,08,09,54,18.40
2018,07,08,09,55,18.40
2018,07,08,09,56,18.40
2018,07,08,09,57,18.40
2018,07,08,09,58,18.50
2018,07,08,09,59,18.50
2018,07,08,10,00,18.50
2018,07,08,10,01,18.50
2018,07,08,10,02,18.50
2018,07,08,10,03,18.50
2018,07,08,10,04,18.60
2018,07,08,10,05,18.60
2018,07,08,10,06,18.60
2018,07,08,10,07,18.70
2018,07,08,10,08,18.70
2018,07,08,10,09,18.80
2018,07,08,10,10,18.80
2018,07,08,10,11,18.80
2018,07,08,10,12,18.80
2018,07,08,10,13,18.90
2018,07,08,10,14,18.90
2018,07,08,10,15,18.90
2018,07,08,10,16,19.00
2018,07,08,10,17,19.00
2018,07,08,10,18,19.00
2018,07,08,10,19,19.10
2018,07,08,10,20,19.10
2018,07,08,10,21,19.10
2018,07,08,10,22,19.20
2018,07,08,10,23,19.20
2018,07,08,10,24,19.20
2018,07,08,10,25,19.20
2018,07,08,10,26,19.20
2018,07,08,10,27,19.20
2018,07,08,10,28,19.10
2018,07,08,10,29,19.10
2018,07,08,10,30,19.10
2018,07,08,10,31,19.10
2018,07,08,10,32,19.10
2018,07,08,10,33,19.10
2018,07,08,10,34,19.10
2018,07,08,10,35,19.10
2018,07,08,10,36,19.10
2018,07,08,10,37,19.10
2018,07,08,10,38,19.10
2018,07,08,10,39,19.10
2018,07,08,10,40,19.00
2018,07,08,10,41,19.00
2018,07,08,10,42,19.00
2018,07,08,10,43,19.00
2018,07,08,10,44,19.00
2018,07,08,10,45,19.00
2018,07,08,10,46,18.90
2018,07,08,10,47,18.90
2018,07,08,10,48,18.90
2018,07,08,10,49,18.90
2018,07,08,10,50,18.90
2018,07,08,10,51,18.90
2018,07,08,10,52,18.90
2018,07,08,10,53,18.90
2018,07,08,10,54,18.90
2018,07,08,10,55,18.90
2018,07,08,10,56,18.90
2018,07,08,10,57,18.90
2018,07,08,10,58,19.00
2018,07,08,10,59,19.00
2018,07,08,11,00,19.10
2018,07,08,11,01,19.10
2018,07,08,11,02,19.20
2018,07,08,11,03,19.20
2018,07,08,11,04,19.20
2018,07,08,11,05,19.20
2018,07,08,11,06,19.20
2018,07,08,11,07,19.30
2018,07,08,11,08,19.30
2018,07,08,11,09,19.30
2018,07,08,11,10,19.40
2018,07,08,11,11,19.40
2018,07,08,11,12,19.40
2018,07,08,11,13,19.40
2018,07,08,11,14,19.50
2018,07,08,11,15,19.60
2018,07,08,11,16,19.60
2018,07,08,11,17,19.60
2018,07,08,11,18,19.60
2018,07,08,11,19,19.60
2018,07,08,11,20,19.60
2018,07,08,11,21,19.60
2018,07,08,11,22,19.70
2018,07,08,11,23,19.70
2018,07,08,11,24,19.80
2018,07,08,11,25,19.80
2018,07,08,11,26,19.90
2018,07,08,11,27,19.90
2018,07,08,11,28,20.00
2018,07,08,11,29,20.00
2018,07,08,11,30,20.10
2018,07,08,11,31,20.10
2018,07,08,11,32,20.20
2018,07,08,11,33,20.30
2018,07,08,11,34,20.40
2018,07,08,11,35,20.50
2018,07,08,11,36,20.60
2018,07,08,11,37,20.70
2018,07,08,11,38,20.80
2018,07,08,11,39,20.90
2018,07,08,11,40,20.90
2018,07,08,11,41,21.00
2018,07,08,11,42,21.00
2018,07,08,11,43,20.90
2018,07,08,11,44,20.90
2018,07,08,11,45,20.80
2018,07,08,11,46,20.80
2018,07,08,11,47,20.80
2018,07,08,11,48,20.90
2018,07,08,11,49,21.00
2018,07,08,11,50,21.10
2018,07,08,11,51,21.20
2018,07,08,11,52,21.30
2018,07,08,11,53,21.30
2018,07,08,11,54,21.30
2018,07,08,11,55,21.40
2018,07,08,11,56,21.40
2018,07,08,11,57,21.50
2018,07,08,11,58,21.60
2018,07,08,11,59,21.60
2018,07,08,12,00,21.70
2018,07,08,12,01,21.80
2018,07,08,12,02,21.90
2018,07,08,12,03,21.90
2018,07,08,12,04,22.00
2018,07,08,12,05,22.00
2018,07,08,12,06,21.90
2018,07,08,12,07,21.80
2018,07,08,12,08,21.80
2018,07,08,12,09,21.80
2018,07,08,12,10,21.80
2018,07,08,12,11,21.80
2018,07,08,12,12,21.80
2018,07,08,12,13,21.80
2018,07,08,12,14,21.80
2018,07,08,12,15,21.90
2018,07,08,12,16,21.90
2018,07,08,12,17,22.00
2018,07,08,12,18,22.00
2018,07,08,12,19,22.10
2018,07,08,12,20,22.10
2018,07,08,12,21,22.00
2018,07,08,12,22,22.00
2018,07,08,12,23,21.90
2018,07,08,12,24,21.90
2018,07,08,12,25,21.80
2018,07,08,12,26,21.70
2018,07,08,12,27,21.70
2018,07,08,12,28,21.80
2018,07,08,12,29,21.80
2018,07,08,12,30,21.80
2018,07,08,12,31,21.70
2018,07,08,12,32,21.70
2018,07,08,12,33,21.60
2018,07,08,12,34,21.50
2018,07,08,12,35,21.50
2018,07,08,12,36,21.50
2018,07,08,12,37,21.50
2018,07,08,12,38,21.50
2018,07,08,12,39,21.50
2018,07,08,12,40,21.50
2018,07,08,12,41,21.40
2018,07,08,12,42,21.40
2018,07,08,12,43,21.50
2018,07,08,12,44,21.50
2018,07,08,12,45,21.50
2018,07,08,12,46,21.40
2018,07,08,12,47,21.40
2018,07,08,12,48,21.40
2018,07,08,12,49,21.50
2018,07,08,12,50,21.60
2018,07,08,12,51,21.70
2018,07,08,12,52,21.80
2018,07,08,12,53,21.90
2018,07,08,12,54,22.00
2018,07,08,12,55,22.10
2018,07,08,12,56,22.20
2018,07,08,12,57,22.20
2018,07,08,12,58,22.30
2018,07,08,12,59,22.30
2018,07,08,13,00,22.30
2018,07,08,13,01,22.30
2018,07,08,13,02,22.40
2018,07,08,13,03,22.40
2018,07,08,13,04,22.40
2018,07,08,13,05,22.40
2018,07,08,13,06,22.50
2018,07,08,13,07,22.60
2018,07,08,13,08,22.60
2018,07,08,13,09,22.60
2018,07,08,13,10,22.60
2018,07,08,13,11,22.60
2018,07,08,13,12,22.60
2018,07,08,13,13,22.60
2018,07,08,13,14,22.70
2018,07,08,13,15,22.80
2018,07,08,13,16,22.90
2018,07,08,13,17,23.00
2018,07,08,13,18,23.10
2018,07,08,13,19,23.20
2018,07,08,13,20,23.20
2018,07,08,13,21,23.20
2018,07,08,13,22,23.30
2018,07,08,13,23,23.30
2018,07,08,13,24,23.30
2018,07,08,13,25,23.30
2018,07,08,13,26,23.30
2018,07,08,13,27,23.30
2018,07,08,13,28,23.30
2018,07,08,13,29,23.40
2018,07,08,13,30,23.40
2018,07,08,13,31,23.40
2018,07,08,13,32,23.40
2018,07,08,13,33,23.40
2018,07,08,13,34,23.50
2018,07,08,13,35,23.50
2018,07,08,13,36,23.60
2018,07,08,13,37,23.70
2018,07,08,13,38,23.70
2018,07,08,13,39,23.80
2018,07,08,13,40,23.80
2018,07,08,13,41,23.70
2018,07,08,13,42,23.70
2018,07,08,13,43,23.60
2018,07,08,13,44,23.50
2018,07,08,13,45,23.50
2018,07,08,13,46,23.60
2018,07,08,13,47,23.60
2018,07,08,13,48,23.70
2018,07,08,13,49,23.80
2018,07,08,13,50,23.80
2018,07,08,13,51,23.90
2018,07,08,13,52,23.90
2018,07,08,13,53,23.90
2018,07,08,13,54,24.00
2018,07,08,13,55,24.10
2018,07,08,13,56,24.20
2018,07,08,13,57,24.20
2018,07,08,13,58,24.20
2018,07,08,13,59,24.20
2018,07,08,14,00,24.20
2018,07,08,14,01,24.20
2018,07,08,14,02,24.20
2018,07,08,14,03,24.20
2018,07,08,14,04,24.10
2018,07,08,14,05,24.00
2018,07,08,14,06,24.00
2018,07,08,14,07,23.90
2018,07,08,14,08,23.90
2018,07,08,14,09,23.80
2018,07,08,14,10,23.80
2018,07,08,14,11,23.70
2018,07,08,14,12,23.70
2018,07,08,14,13,23.60
2018,07,08,14,14,23.60
2018,07,08,14,15,23.60
2018,07,08,14,16,23.60
2018,07,08,14,17,23.60
2018,07,08,14,18,23.50
2018,07,08,14,19,23.40
2018,07,08,14,20,23.50
2018,07,08,14,21,23.60
2018,07,08,14,22,23.60
2018,07,08,14,23,23.60
2018,07,08,14,24,23.60
2018,07,08,14,25,23.70
2018,07,08,14,26,23.60
2018,07,08,14,27,23.60
2018,07,08,14,28,23.60
2018,07,08,14,29,23.60
2018,07,08,14,30,23.70
2018,07,08,14,31,23.70
2018,07,08,14,32,23.70
2018,07,08,14,33,23.80
2018,07,08,14,34,23.80
2018,07,08,14,35,23.80
2018,07,08,14,36,23.80
2018,07,08,14,37,23.70
2018,07,08,14,38,23.70
2018,07,08,14,39,23.70
2018,07,08,14,40,23.60
2018,07,08,14,41,23.50
2018,07,08,14,42,23.50
2018,07,08,14,43,23.40
2018,07,08,14,44,23.40
2018,07,08,14,45,23.40
2018,07,08,14,46,23.30
2018,07,08,14,47,23.20
2018,07,08,14,48,23.20
2018,07,08,14,49,23.20
2018,07,08,14,50,23.20
2018,07,08,14,51,23.20
2018,07,08,14,52,23.20
2018,07,08,14,53,23.30
2018,07,08,14,54,23.30
2018,07,08,14,55,23.30
2018,07,08,14,56,23.40
2018,07,08,14,57,23.40
2018,07,08,14,58,23.40
2018,07,08,14,59,23.40
2018,07,08,15,00,23.40
2018,07,08,15,01,23.40
2018,07,08,15,02,23.40
2018,07,08,15,03,23.40
2018,07,08,15,04,23.40
2018,07,08,15,05,23.40
2018,07,08,15,06,23.50
2018,07,08,15,07,23.50
2018,07,08,15,08,23.70
2018,07,08,15,09,23.80
2018,07,08,15,10,23.90
2018,07,08,15,11,24.00
2018,07,08,15,12,24.10
2018,07,08,15,13,24.20
2018,07,08,15,14,24.20
2018,07,08,15,15,24.20
2018,07,08,15,16,24.20
2018,07,08,15,17,24.20
2018,07,08,15,18,24.20
2018,07,08,15,19,24.20
2018,07,08,15,20,24.20
2018,07,08,15,21,24.20
2018,07,08,15,22,24.20
2018,07,08,15,23,24.20
2018,07,08,15,24,24.30
2018,07,08,15,25,24.30
2018,07,08,15,26,24.30
2018,07,08,15,27,24.40
2018,07,08,15,28,24.40
2018,07,08,15,29,24.40
2018,07,08,15,30,24.40
2018,07,08,15,31,24.40
2018,07,08,15,32,24.40
2018,07,08,15,33,24.40
2018,07,08,15,34,24.50
2018,07,08,15,35,24.50
2018,07,08,15,36,24.50
2018,07,08,15,37,24.50
2018,07,08,15,38,24.60
2018,07,08,15,39,24.50
2018,07,08,15,40,24.50
2018,07,08,15,41,24.40
2018,07,08,15,42,24.40
2018,07,08,15,43,24.40
2018,07,08,15,44,24.40
2018,07,08,15,45,24.30
2018,07,08,15,46,24.30
2018,07,08,15,47,24.30
2018,07,08,15,48,24.30
2018,07,08,15,49,24.30
2018,07,08,15,50,24.40
2018,07,08,15,51,24.40
2018,07,08,15,52,24.30
2018,07,08,15,53,24.10
2018,07,08,15,54,24.00
2018,07,08,15,55,23.90
2018,07,08,15,56,23.80
2018,07,08,15,57,23.70
2018,07,08,15,58,23.70
2018,07,08,15,59,23.60
2018,07,08,16,00,23.60
2018,07,08,16,01,23.50
2018,07,08,16,02,23.40
2018,07,08,16,03,23.40
2018,07,08,16,04,23.40
2018,07,08,16,05,23.40
2018,07,08,16,06,23.30
2018,07,08,16,07,23.20
2018,07,08,16,08,23.10
2018,07,08,16,09,22.90
2018,07,08,16,10,22.80
2018,07,08,16,11,22.70
2018,07,08,16,12,22.60
2018,07,08,16,13,22.50
2018,07,08,16,14,22.40
2018,07,08,16,15,22.30
2018,07,08,16,16,22.30
2018,07,08,16,17,22.30
2018,07,08,16,18,22.30
2018,07,08,16,19,22.30
2018,07,08,16,20,22.30
2018,07,08,16,21,22.30
2018,07,08,16,22,22.20
2018,07,08,16,23,22.20
2018,07,08,16,24,22.20
2018,07,08,16,25,22.20
2018,07,08,16,26,22.10
2018,07,08,16,27,22.10
2018,07,08,16,28,22.00
2018,07,08,16,29,21.90
2018,07,08,16,30,21.90
2018,07,08,16,31,21.90
2018,07,08,16,32,21.90
2018,07,08,16,33,22.00
2018,07,08,16,34,22.00
2018,07,08,16,35,22.10
2018,07,08,16,36,22.20
2018,07,08,16,37,22.20
2018,07,08,16,38,22.20
2018,07,08,16,39,22.20
2018,07,08,16,40,22.20
2018,07,08,16,41,22.30
2018,07,08,16,42,22.30
2018,07,08,16,43,22.30
2018,07,08,16,44,22.30
2018,07,08,16,45,22.30
2018,07,08,16,46,22.40
2018,07,08,16,47,22.50
2018,07,08,16,48,22.50
2018,07,08,16,49,22.50
2018,07,08,16,50,22.50
2018,07,08,16,51,22.60
2018,07,08,16,52,22.60
2018,07,08,16,53,22.60
2018,07,08,16,54,22.60
2018,07,08,16,55,22.60
2018,07,08,16,56,22.70
2018,07,08,16,57,22.70
2018,07,08,16,58,22.80
2018,07,08,16,59,22.90
2018,07,08,17,00,23.00
2018,07,08,17,01,23.10
2018,07,08,17,02,23.20
2018,07,08,17,03,23.20
2018,07,08,17,04,23.20
2018,07,08,17,05,23.10
2018,07,08,17,06,23.00
2018,07,08,17,07,23.00
2018,07,08,17,08,22.90
2018,07,08,17,09,22.90
2018,07,08,17,10,22.90
2018,07,08,17,11,22.90
2018,07,08,17,12,22.90
2018,07,08,17,13,23.00
2018,07,08,17,14,23.00
2018,07,08,17,15,23.00
2018,07,08,17,16,23.00
2018,07,08,17,17,22.90
2018,07,08,17,18,22.90
2018,07,08,17,19,22.80